Location: Castillon
(43.1358°N, 0.8654°E)
Time: 02:28:27
(UTC+00:00)

NOSS 2-1 (D) - Pass Details

Date: 24 January 2021
Orbit: 434 x 1768 km, 63.3° (Epoch: 27 February)

Event Time Altitude Azimuth Distance (km) Brightness Sun altitude
Rises 18:36:49 0° 226° (SW) 2,484 7.6 -17.9°
Reaches altitude 10° 18:38:59 10° 231° (SW) 1,558 6.5 -18.3°
Maximum altitude 18:42:14 52° 310° (NW) 549 3.5 -18.9°
Enters shadow 18:43:25 33° 8° (N) 770 3.9 -19.1°
